Flag for Azerbaijan Weather past 2 weeks in Ganja, Azerbaijan

Now
48 °F

Passing clouds.


Feels Like: 48 °F
Forecast: 46 / 65 °F
Wind: 2 mph from Southwest

Location: Gyanca Airport

Current Time: Apr 27, 2015 at 4:29:47 AM

Latest Report: Apr 27, 2015 at 4:00 AM


Visibility: N/A

Pressure: 30.12 "Hg

Humidity: 94%

Dew point: 46 °F

Location of GanjaLocation

Historic Weather in Ganja — Graph

°F

Ganja temperature yesterday

Maximum temperature yesterday: 68 °F (at 4:00 PM)
Minimum temperature yesterday: 46 °F (at 4:00 AM)
Average temperature yesterday: 58 °F

Past Weeks' High & Low Weather Summary

 TemperatureHumidityPressure
High75 °F (Apr 18, 5:30 PM)100% (Apr 12, 4:30 AM)30.24 "Hg (Apr 12, 4:30 AM)
Low41 °F (Apr 24, 9:00 AM)24% (Apr 15, 4:30 PM)29.71 "Hg (Apr 21, 1:00 PM)
Average54 °F66%29.98 "Hg
* Reported Apr 12 3:00 AM — Apr 27 3:30 AM, Ganja, Weather by CustomWeather, © 2015

Note: Actual official high and low records may vary slightly from our data, if they occured in-between our weather recording intervals... More about our weather records

Advertising

Ganja weather history for previous 24 hours

 ConditionsComfort  
Time TempWeatherWind HumidityBarometerVisibility
3:30 AM
Mon, Apr 27
48 °FPassing clouds.3 mph94%30.12 "HgN/A
3:00 AM50 °FPassing clouds.2 mph88%30.12 "HgN/A
2:30 AM52 °FPassing clouds.5 mph88%30.12 "HgN/A
2:00 AM52 °FPassing clouds.5 mph88%30.12 "HgN/A
1:30 AM52 °FPassing clouds.5 mph82%30.12 "HgN/A
1:00 AM54 °FPassing clouds.5 mph77%30.09 "HgN/A
12:30 AM54 °FPassing clouds.5 mph82%30.09 "HgN/A
12:00 AM54 °FPassing clouds.No wind77%30.09 "HgN/A
11:30 PM
Sun, Apr 26
57 °FPassing clouds.3 mph72%30.09 "HgN/A
11:00 PM59 °FPassing clouds.5 mph68%30.09 "HgN/A
10:30 PM61 °FScattered clouds.7 mph59%30.09 "HgN/A
10:00 PM61 °FScattered clouds.6 mph59%30.09 "HgN/A
9:30 PM61 °FScattered clouds.7 mph59%30.09 "HgN/A
9:00 PM64 °FScattered clouds.9 mph52%30.09 "HgN/A
8:30 PM64 °FScattered clouds.9 mph52%30.09 "HgN/A
8:00 PM66 °FScattered clouds.8 mph52%30.09 "HgN/A
7:30 PM68 °FPartly sunny.9 mph46%30.09 "HgN/A
7:00 PM68 °FPartly sunny.10 mph43%30.09 "HgN/A
6:30 PM68 °FScattered clouds.9 mph40%30.09 "HgN/A
6:00 PM68 °FScattered clouds.8 mph43%30.09 "HgN/A
5:30 PM68 °FScattered clouds.9 mph40%30.12 "HgN/A
5:00 PM68 °FPassing clouds.8 mph43%30.12 "HgN/A
4:30 PM68 °FPassing clouds.8 mph40%30.12 "HgN/A
4:00 PM68 °FPassing clouds.3 mph43%30.12 "HgN/A
3:30 PM66 °FPassing clouds.5 mph46%30.15 "HgN/A
3:00 PM66 °FPassing clouds.5 mph43%30.15 "HgN/A
2:30 PM66 °FPassing clouds.3 mph43%30.15 "HgN/A
2:00 PM64 °FPassing clouds.5 mph43%30.18 "HgN/A
1:30 PM64 °FPassing clouds.5 mph43%30.18 "HgN/A
1:00 PM63 °FPassing clouds.5 mph49%30.18 "HgN/A
12:30 PM63 °FPassing clouds.3 mph45%30.21 "HgN/A
12:00 PM61 °FPassing clouds.3 mph52%30.21 "HgN/A
11:30 AM61 °FPassing clouds.6 mph48%30.21 "HgN/A
11:00 AM59 °FPassing clouds.6 mph51%30.21 "HgN/A
10:30 AM57 °FPassing clouds.6 mph55%30.21 "HgN/A
10:00 AM55 °FPassing clouds.8 mph63%30.21 "HgN/A
9:30 AM55 °FPassing clouds.7 mph59%30.21 "HgN/A
9:00 AM54 °FPassing clouds.6 mph54%30.21 "HgN/A
8:30 AM52 °FPassing clouds.6 mph58%30.21 "HgN/A
8:00 AM50 °FPassing clouds.7 mph62%30.21 "HgN/A
7:30 AM46 °FPassing clouds.7 mph71%30.21 "HgN/A
7:00 AM46 °FPassing clouds.8 mph71%30.18 "HgN/A
6:30 AM46 °FPassing clouds.8 mph71%30.18 "HgN/A
6:00 AM46 °FPassing clouds.7 mph71%30.18 "HgN/A
5:30 AM48 °FPassing clouds.7 mph62%30.18 "HgN/A
5:00 AM46 °FPassing clouds.8 mph76%30.18 "HgN/A
4:30 AM46 °FPassing clouds.8 mph76%30.18 "HgN/A
4:00 AM46 °FPassing clouds.8 mph71%30.18 "HgN/A
Weather by CustomWeather, © 2015

See weather overviewHow to use our weather pages